Terminal Aerodrome Forecast
Issued by NWS

Home | Current Version | Previous Version | Text Only | Print | Product List | Glossary On
Versions: 1 2 3 4 5 6 7 8 9 10 11 12 13 14 15
000
FTUS42 TJSJ 181733 AAA
TAFJBQ
TAF AMD
TJBQ 181733Z 1818/1918 12007KT P6SM VCTS SCT030CB
      TEMPO 1818/1821 4SM TSRA BKN030CB
     FM182100 12013KT P6SM VCTS SCT030CB BKN050
     FM182300 VRB06KT P6SM SCT030
      AMD NOT SKED 1902/1911=

USA.gov is the U.S. government's official web portal to all federal, state and local government web resources and services.